www.pogodaiklimat.ru

Погода и климат >> Архив погоды >> Россия >> Магаданская область >> Сусуман


АРХИВ ПОГОДЫ в Сусумане

Время (UTC), дата Ветер
(напр.,м/с)
 
Видим.   Явления Облачность Т
(С)
Тd
(С)
f
(%)
Тe
(С)
Тes
(С)
Комфортность P
(гПа)
Po
(гПа)
Тmin
(С)
Tmax
(С)
R
(мм)
R24
(мм)
S
(см)
18 16.01 штиль 0 20 км туман местами ясно -53.0 -58.6 50 -53 -53 опасность
обморожения
1046.4 946.1
21 16.01 штиль 0 20 км туман местами ясно -53.4 -59.0 50 -53 -53 опасность
обморожения
1046.3 945.8 -53.5 36
00 17.01 штиль 0 20 км туман местами ясно -52.5 -57.9 52 -53 -52 опасность
обморожения
1044.8 944.9
03 17.01 штиль 0 50 км ясно -48.4 -53.9 53 -48 -48 опасность
обморожения
1040.8 943.0
06 17.01 В 1 50 км ясно -50.3 -55.6 53 -57 -57 опасность
обморожения
1040.1 941.6
09 17.01 СВ 1 50 км ясно -52.2 -57.6 52 -59 -59 опасность
обморожения
1040.6 941.2 -46.8
12 17.01 В 1 50 км ясно -52.8 -58.3 51 -59 -59 опасность
обморожения
1039.9 940.3
15 17.01 СВ 1 50 км ясно -52.3 -57.8 51 -59 -59 опасность
обморожения
1038.3 939.1
18 17.01 штиль 0 50 км ясно -52.6 -58.1 51 -53 -53 опасность
обморожения
1037.5 938.2
21 17.01 штиль 0 50 км ясно -51.3 -56.7 52 -51 -51 опасность
обморожения
1036.4 937.8 -53.0 36
00 18.01 СВ 1 50 км ясно -50.9 -56.2 53 -57 -57 опасность
обморожения
1035.8 937.4
03 18.01 штиль 0 50 км ясно -46.7 -52.0 54 -47 -46 опасность
обморожения
1032.4 936.1
06 18.01 штиль 0 50 км ясно -47.4 -52.4 56 -47 -47 опасность
обморожения
1032.4 935.8
09 18.01 штиль 0 50 км ясно -49.5 -54.6 55 -50 -50 опасность
обморожения
1033.8 936.2 -46.1
12 18.01 штиль 0 50 км 6/0
[Ci fib]
-46.5 -51.3 58 -47 -47 опасность
обморожения
1032.6 936.3
15 18.01 штиль 0 50 км 9/0
[Ci fib]
-45.4 -50.2 58 -45 -45 опасность
обморожения
1031.9 936.1
18 18.01 штиль 0 50 км 9/0
[Cs]
-44.6 -49.2 60 -45 -45 опасность
обморожения
1031.5 936.1
21 18.01 штиль 0 50 км 9/0
[Ac trans Cs]
-43.7 -48.2 61 -44 -44 опасность
обморожения
1031.5 936.4 -49.5 36
00 19.01 штиль 0 50 км {снег} 9/0
[Ac trans Cs]
-44.1 -48.7 60 -44 -44 опасность
обморожения
1032.3 937.0
03 19.01 Ю 1 50 км 9/0
[Cs]
-40.6 -45.3 60 -46 -46 опасность
обморожения
1031.1 937.2
06 19.01 штиль 0 50 км 8/0
[Ci fib]
-42.5 -46.9 62 -43 -43 опасность
обморожения
1032.4 937.7
09 19.01 штиль 0 50 км 9/0
[Cs]
-42.0 -46.4 62 -42 -42 опасность
обморожения
1032.7 938.2 -39.4 0.0
12 19.01 штиль 0 20 км туман местами 9/0
[Cs]
-44.2 -48.7 61 -44 -44 опасность
обморожения
1033.6 938.1
15 19.01 штиль 0 20 км туман местами 9/0
[Ac As]
-43.0 -47.4 62 -43 -43 опасность
обморожения
1032.6 937.7
18 19.01 штиль 0 20 км туман местами 9/0
[Ac trans Cs]
-42.0 -46.3 63 -42 -42 опасность
обморожения
1031.6 937.2
21 19.01 штиль 0 20 км туман местами 9/0
[Ac trans Cs]
-41.8 -46.1 63 -42 -42 опасность
обморожения
1030.9 936.6 -44.7 36
00 20.01 штиль 0 10 км слаб. снег 10/0
[Ac As]
-39.8 -43.9 65 -40 -40 опасность
обморожения
1029.3 936.0
03 20.01 штиль 0 10 км слаб. снег 10/0
[Ac As]
-35.9 -39.9 66 -36 -36 опасность
обморожения
1026.3 934.6
06 20.01 штиль 0 10 км слаб. снег 10/0
[Ac As]
-34.3 -37.9 70 -34 -34 опасность
обморожения
1024.3 933.4
09 20.01 штиль 0 10 км слаб. снег 9/0
[Ac As]
-32.3 -35.9 70 -32 -32 опасность
обморожения
1023.0 932.9 -32.3 0.5
12 20.01 штиль 0 10 км слаб. снег 9/0
[Ac As]
-30.8 -34.1 73 -31 -31 опасность
обморожения
1022.0 932.5
15 20.01 штиль 0 50 км {снег} 9/0
[Ac trans Cs]
-29.7 -33.1 72 -30 -30 1021.3 932.3
18 20.01 штиль 0 н/о н/о -28.5 -31.6 75 -29 -29 1020.5 931.9
21 20.01 Ю 1 20 км слаб. снег 9/0
[Ac trans Cs]
-30.9 -34.0 74 -35 -35 опасность
обморожения
1021.7 932.2 -32.3 0.4 37
00 21.01 штиль 0 50 км {снег} 9/3 1000 м
[Sc Ac As Cs]
-31.9 -35.0 74 -32 -32 опасность
обморожения
1022.9 933.0 -34.6
03 21.01 штиль 0 10 км слаб. снег 10/4 1000 м
[Sc Ac As]
-28.5 -31.7 74 -29 -28 1021.9 933.3
06 21.01 штиль 0 50 км {снег} 9/0
[Ac trans Cs]
-31.2 -34.4 73 -31 -31 опасность
обморожения
1023.9 934.1
09 21.01 штиль 0 50 км 9/0
[Cs]
-35.4 -38.8 71 -35 -35 опасность
обморожения
1027.3 935.7 -26.5
12 21.01 штиль 0 50 км 9/0
[Ci fib]
-36.8 -40.4 69 -37 -37 опасность
обморожения
1029.6 937.3
15 21.01 штиль 0 50 км 9/0
[Ac trans Cs]
-33.4 -36.8 71 -33 -33 опасность
обморожения
1029.1 938.1
18 21.01 штиль 0 50 км 9/0
[Ac As Cs]
-31.9 -35.2 72 -32 -32 опасность
обморожения
1029.6 939.1
21 21.01 штиль 0 50 км 9/0
[Ac As Cs]
-31.0 -34.1 74 -31 -31 опасность
обморожения
1030.5 940.2 -37.7 37
00 22.01 штиль 0 50 км 10/0
[Ac As]
-29.3 -32.4 74 -29 -29 1030.6 940.9
03 22.01 штиль 0 20 км слаб. снег 10/0
[Ac As]
-27.9 -31.1 74 -28 -28 1030.1 941.0
06 22.01 штиль 0 50 км {снег} 9/0
[Ac As]
-29.9 -32.9 75 -30 -30 1032.0 942.0
09 22.01 В 1 50 км 9/0
[Ac As]
-33.0 -36.3 72 -37 -37 опасность
обморожения
1034.5 943.2 -27.6 0.0
12 22.01 штиль 0 50 км 9/0
[Ac trans Ci fib]
-35.8 -39.2 71 -36 -36 опасность
обморожения
1036.4 943.8
15 22.01 штиль 0 50 км 9/0
[Ci fib]
-36.7 -40.2 70 -37 -37 опасность
обморожения
1036.9 944.0
18 22.01 В 1 50 км 8/0
[Ci fib]
-38.0 -41.7 68 -43 -43 опасность
обморожения
1038.0 944.6
21 22.01 СВ 1 50 км 3/0
[Ci fib]
-38.4 -42.1 68 -43 -43 опасность
обморожения
1038.8 945.1 -39.1 37
00 23.01 штиль 0 50 км 3/0
[Ci fib]
-39.0 -42.9 66 -39 -39 опасность
обморожения
1039.1 945.2 -39.4
03 23.01 штиль 0 50 км 3/0
[Ci fib]
-33.4 -37.5 66 -33 -33 опасность
обморожения
1036.7 945.0
06 23.01 В 1 50 км 3/0
[Ci fib]
-35.3 -38.9 69 -40 -40 опасность
обморожения
1037.7 945.2
09 23.01 штиль 0 50 км 3/0
[Ci fib]
-38.7 -42.5 67 -39 -39 опасность
обморожения
1039.2 945.3 -32.6
12 23.01 штиль 0 50 км 3/0
[Ci fib]
-37.9 -41.7 67 -38 -38 опасность
обморожения
1038.8 945.2

 

Местоположение метеостанции Сусуман (Магаданская область, Россия): широта 62.78 долгота 148.10 высота над уровнем моря 655 м.

В архиве по умолчанию представлена погода в Сусумане за последнюю неделю. Архивные данные за месяц целиком и за предыдущие месяцы, начиная с января 2011 года, Вы можете получить, выбрав интересующий диапазон дат из раскрывающегося списка и нажав кнопку "Ввод!".


*Определитесь, кто Вы:
робот инопланетянин человек

Внимание! Время в таблицах - всемирное. Для получения местного времени необходимо прибавить поправку, которая равна 11 ч.

Смотрите также архив погоды в соседних городах и на ближайших метеорологических станциях:

Погода в Ягодной (Магаданская область, Россия) (82 км)
Погода на Озере Джека Лондона (Магаданская область, Россия) (106 км)
Погода в Колымской (Магаданская область, Россия) (107 км)
Погода в Совхозе Эльген (Магаданская область, Россия) (127 км)
Погода в Усть-Бохапче (Магаданская область, Россия) (149 км)
Погода в Делянкире (Якутия, Россия) (171 км)
Погода в Усть-Омчуге (Магаданская область, Россия) (201 км)
Погода в Среднекане (Магаданская область, Россия) (218 км)
Погода в Сеймчане (Магаданская область, Россия) (219 км)
Погода в Оймяконе (Якутия, Россия) (258 км)

Пояснения к столбцам:

Ветер - указаны скорость ветра в м/с - средняя за 10 мин, порывы в срок и между сроками (в фигурных скобках) и направление, откуда дует ветер: С - северный, СВ - северо-восточный, В - восточный, ЮВ - юго-восточный, Ю - южный, ЮЗ - юго-западный, З - западный, СЗ - северо-западный.
Видимость - горизонтальная дальность видимости в метрах или километрах. При видимости от 1 до 10 км при отсутствии осадков обычно наблюдается дымка, при ухудшении видимости до 1 км и менее - туман. В сухую погоду видимость может ухудшаться дымом, пылью или мглою.
Явления - указаны атмосферные явления, наблюдавшиеся в срок или в последний час перед сроком; фигурными скобками обозначены явления, наблюдавшиеся между сроками (за 1-3 часа до срока); квадратными скобками обозначены град или гололедные отложения с указанием их диаметра в мм.
Облачность - указаны через наклонную черту общая и нижняя облачность в баллах и высота нижней границы облаков в метрах; квадратными скобками обозначены формы облаков: Ci - перистые, Cs - перисто-слоистые, Cc - перисто-кучевые, Ac - высококучевые, As - высокослоистые, Sc - слоисто-кучевые, Ns - слоисто-дождевые, Cu - кучевые, Cb - кучево-дождевые. Подробнее классификацию облаков см. в Атласе облаков (PDF).
T - Температура воздуха - температура, измеренная на высоте 2 м над землей.
Td - Температура точки росы - температура, при понижении до которой содержащийся в воздухе водяной пар достигнет насыщения.
f - Относительная влажность воздуха - влажноcть воздуха, измеренная на высоте 2 м над землей.
Te - Эффективная температура - температура, которую ощущает одетый по сезону человек в тени. Характеристика душности погоды. При расчете учитывается влияние влажности воздуха и скорости ветра на теплоощущения человека.
Tes - Эффективная температура на солнце - температура, которую ощущает человек, с поправкой на солнечный нагрев. Характеристика знойности погоды. Зависит от высоты солнца над горизонтом, облачности и скорости ветра. Ночью, в пасмурную погоду, а также при ветре 12 м/с и более поправка равна нулю.
P - Атмосферное давление - приведенное к уровню моря атмосферное давление.
Po - Атмосферное давление - измеренное на уровне метеостанции атмосферное давление.
Tmin - Минимальная температура - минимум температуры воздуха на высоте 2 м над землей.
Tmax - Максимальная температура - максимум температуры воздуха на высоте 2 м над землей.
R - Количество осадков - Количество выпавших осадков за период времени, мм. При наведении курсора мыши на число - период времени, за который выпало указанное количество осадков.
R24 - Количество осадков - Количество выпавших осадков за 24 часа, мм.
S - Снежный покров - Высота снежного покрова, см. При наведении курсора мыши на число - состояние снежного покрова и степень покрытия местности в баллах.